Regional Weather Roundup
Issued by NWS

Home | Current Version | Previous Version | Text Only | Print | Product List | Glossary Off
Versions: 1 2 3 4 5 6 7 8 9 10 11 12 13 14 15 16 17 18 19 20 21 22 23 24 25 26 27 28 29 30 31 32 33 34 35 36 37 38 39 40 41 42 43 44 45 46 47 48 49 50

000
ASUS43 KMKX 170600
RWRWI

WISCONSIN REGIONAL WEATHER ROUNDUP
NATIONAL WEATHER SERVICE MILWAUKEE/SULLIVAN WI
100 AM CDT THU AUG 17 2017

NOTE: "FAIR" INDICATES FEW OR NO CLOUDS BELOW 12,000 FEET WITH NO
SIGNIFICANT WEATHER AND/OR OBSTRUCTIONS TO VISIBILITY.

WIZ001-002-006>008-014>016-023>028-170700-
NORTHWEST WISCONSIN

CITY           SKY/WX    TMP DP  RH WIND       PRES   REMARKS
SUPERIOR ARPT  RAIN      62  61  98 NE16G23   29.74F
ASHLAND        LGT RAIN  65  62  90 NE8       29.75F
6HR MIN TEMP:  65; 6HR MAX TEMP:  67; 6HR PCP:  0.01;

HAYWARD        RAIN      65  63  93 E7G23     29.69F FOG
6HR MIN TEMP:  65; 6HR MAX TEMP:  73; 6HR PCP:  0.30;

SIREN          RAIN      66  65  96 E5        29.67F
CUMBERLAND     CLOUDY    64  63  94 SE13      29.66F
RICE LAKE      CLOUDY    67  65  94 E10       29.67F
CHETEK         CLOUDY    67  66  97 S6        29.67S
LADYSMITH      HVY RAIN  65  64  97 E12       29.73F
EAU CLAIRE     NOT AVBL
MENOMONIE      CLOUDY    69  69  99 E12       29.63F
NEW RICHMOND   CLOUDY    68  67  98 E8        29.61S
OSCEOLA        CLOUDY    68  68 100 E12       29.62F
$$

WIZ003>005-009-010-017-018-170700-
NORTH CENTRAL WISCONSIN

CITY           SKY/WX    TMP DP  RH WIND       PRES   REMARKS
MANITOWISH WTR CLOUDY    64  60  84 E7        29.79F
ARBOR VITAE    LGT RAIN  65  59  81 SE12      29.79F
WOODRUFF       LGT RAIN  65  59  81 SE12      29.79F
RHINELANDER    CLOUDY    63  59  87 E9        29.80F
6HR MIN TEMP:  63; 6HR MAX TEMP:  70; 6HR PCP: TRACE;

EAGLE RIVER    CLOUDY    63  55  76 SE10      29.82F
LAND O LAKES   CLOUDY    63  56  77 SE9       29.84F
6HR MIN TEMP:  63; 6HR MAX TEMP:  70;

PHILLIPS       RAIN      63  62  98 E6        29.77R
6HR MIN TEMP:  63; 6HR MAX TEMP:  72; 6HR PCP:  0.06;

TOMAHAWK         N/A     64  58  81 E7        29.78F
MEDFORD        DRIZZLE   63  61  94 E10       29.74F
MERRILL        NOT AVBL
$$

WIZ029-030-035-036-043>047-170700-
CENTRAL WISCONSIN

CITY           SKY/WX    TMP DP  RH WIND       PRES   REMARKS
WAUSAU         LGT RAIN  63  62  97 E15       29.75F FOG
6HR MIN TEMP:  63; 6HR MAX TEMP:  71; 6HR PCP:  0.05;

MOSINEE        DRIZZLE   63  63 100 E10       29.77F
MARSHFIELD     CLOUDY    65  63  93 E13       29.72F
6HR MIN TEMP:  65; 6HR MAX TEMP:  72; 6HR PCP:  0.14;

STEVENS POINT  LGT RAIN  63  63 100 E8        29.76F
WAUPACA        LGT RAIN  67  67  97 E8        29.76F
WAUTOMA        NOT AVBL
WISC RAPIDS    CLOUDY    66  65  96 SE8       29.74F
6HR MIN TEMP:  65; 6HR MAX TEMP:  75; 6HR PCP:  0.09;

CAMP DOUGLAS   CLOUDY    70  70 100 SE7       29.69F
6HR MIN TEMP:  70; 6HR MAX TEMP:  76; 6HR PCP:  0.35;

$$

WIZ011>013-019>022-031-037>040-048>050-170700-
NORTHEAST WISCONSIN

CITY           SKY/WX    TMP DP  RH WIND       PRES   REMARKS
ANTIGO         LGT RAIN  62  60  94 E12       29.81F
SHAWANO        RAIN      67  64  89 E10       29.78F
6HR MIN TEMP:  67; 6HR MAX TEMP:  73; 6HR PCP:  0.09;

OCONTO         CLOUDY    68  63  83 E5        29.81S
STURGEON BAY   NOT AVBL
GREEN BAY      LGT RAIN  67  67 100 CALM      29.78F
6HR MIN TEMP:  66; 6HR MAX TEMP:  71; 6HR PCP:  0.33;

MANITOWOC      LGT RAIN  70  68  94 SE9       29.80F
APPLETON       CLOUDY    66  66 100 E10       29.77F
CLINTONVILLE   LGT RAIN  64  63  94 E9        29.78F
OSHKOSH        LGT RAIN  69  67  93 SE10      29.76F
$$

WIZ032>034-041-042-053>061-170700-
SOUTHWEST WISCONSIN

CITY           SKY/WX    TMP DP  RH WIND       PRES   REMARKS
LA CROSSE      CLOUDY    77  73  87 S15       29.64S
6HR MIN TEMP:  75; 6HR MAX TEMP:  78; 6HR PCP:  0.19;

SPARTA         CLOUDY    70  69  97 SE10      29.67F
VIROQUA        CLOUDY    73  73 100 S8        29.70F
6HR MIN TEMP:  72; 6HR MAX TEMP:  73; 6HR PCP:  0.09;

BOSCOBEL       CLOUDY    77  72  84 S8        29.69F
PRAIRIE DU CHI CLOUDY    76  71  86 S6        29.68F
PLATTEVILLE    CLOUDY    74  74 100 S14       29.74F
$$

WIZ056-057-062-063-064-067-068-170700-
SOUTH CENTRAL WISCONSIN

CITY           SKY/WX    TMP DP  RH WIND       PRES   REMARKS
REEDSBURG      CLOUDY    72  72 100 S8        29.72F
BARABOO/DELLS  CLOUDY    71  69  94 S7        29.73F
LONE ROCK      CLOUDY    74  74 100 SE5       29.71F
MINERAL POINT  CLOUDY    73  73 100 S8        29.75S
MADISON        NOT AVBL
MIDDLETON      CLOUDY    75  75 100 S9        29.75F
WATERTOWN      CLOUDY    72  72 100 S9        29.76F
MONROE         CLOUDY    72  72 100 S12       29.76F
JANESVILLE     CLOUDY    75  75 100 S5        29.76F
$$

WIZ051-052-058>065-066-070>072-170700-
SOUTHEAST WISCONSIN

CITY           SKY/WX    TMP DP  RH WIND       PRES   REMARKS
MILWAUKEE      NOT AVBL
WAUKESHA       CLOUDY    70  70 100 S6        29.79F FOG
MILWAUKEE/TIMM LGT RAIN  70  68  94 SE5       29.79F
RACINE         LGT RAIN  74  73  97 S9        29.80F
KENOSHA        NOT AVBL
FOND DU LAC    HVY RAIN  70  67  90 S9        29.77F FOG
SHEBOYGAN      NOT AVBL
WEST BEND      CLOUDY    68  68 100 SE6       29.79F
JUNEAU         RAIN      70  70  98 SE6       29.78F
$$

LSZ147-162-170700-
LAKE SUPERIOR

STATION/POSITION TIME  TEMP    WIND        PRES    WAVE
                       AIR SEA DIR/SP/G            HT/PER
                 (UTC) (F)     (DEG/KT/KT) (MB)    (FT/S)
W MID LAKE BUOY  0450   62 60   80/ 14/ 17 1010.2F   3/ 4
DEVILS ISLAND    0500   63      70/ 18/ 21 1009.0F
PORT WING        0340   61      50/ 10/ 12 1009.5
SAXON HARBOR     0530   68      40/  3/  5 1007.1F
$$

LMZ867-665-643>646-170700-
LAKE MICHIGAN

STATION/POSITION TIME  TEMP    WIND        PRES    WAVE
                       AIR SEA DIR/SP/G            HT/PER
                 (UTC) (F)     (DEG/KT/KT) (MB)    (FT/S)
S GREEN BAY BUOY 0500   70 72  110/ 14/ 17 1009.4
N MID LAKE BUOY  0450   69 68  120/ 10/ 12 1011.7F   1/ 3
NORTHPORT PIER   0540   70     110/  9/ 11 1010.2F
KEWAUNEE LAKESHO 0530   70     150/  5/  7 1009.1F
SHEBOYGAN LAKESH 0500   70     120/  9/ 10 1009.3F
PORT WASHINGTON  0530   73     140/  8/ 12 1009.5F
ATWATER BUOY     0409   72 72  120/ 10/ 12 1009.9F
MILWAUKEE LAKESH 0530   73     170/  4/  4   N/A
S MID LAKE BUOY  0450   75 72  110/ 12/ 14 1009.4F   1/ 3
KENOSHA   LAKESH 0500   72     180/ 15/ 27 1009.5
$$

TC  - TEMPERATURE IN CELSIUS
VSB - VISIBILITY IN STATUTE MILES
WCI - WIND CHILL INDEX
HX  - HEAT INDEX




USA.gov is the U.S. government's official web portal to all federal, state and local government web resources and services.